Terminal Aerodrome Forecast
Issued by NWS Lubbock, TX

Home | Current Version | Previous Version | Text Only | Print | Product List | Glossary On
Versions: 1 2 3 4 5 6 7 8 9 10 11 12 13 14 15 16 17 18 19 20 21 22 23 24 25 26 27 28 29 30 31 32 33 34 35 36 37 38 39 40 41
000
FTUS44 KLUB 212300
TAFLBB
TAF
KLBB 212332Z 2200/2224 VRB05KT P6SM VCSH FEW010 SCT025 BKN060
      TEMPO 2200/2202 -SHRA BKN025
     FM220600 07011KT 3SM SHRA BR SCT004 BKN008
     FM221200 09010KT P6SM BKN015=

USA.gov is the U.S. government's official web portal to all federal, state and local government web resources and services.